This demonstration page uses our WeatherBlox Daily Observations layout. Learn more.

Left ArrowRight Arrow

39.51506, -84.39828

Hourly Observations for June 20, 2022

Temp ( °F °C ) Dew Point ( °F °C ) Humidity (%) Winds ( mph kmh ) Pressure ( in mb ) Visibility ( mi km ) Precip ( " mm )
12:15 am 00:15 Clear 57 13.8 53 11.8 88 88 Calm 30.22 1023 10 16 0.00 0.00
12:35 am 00:35 Clear 55 13 53 11.8 92 92 Calm 30.21 1023 10 16 0.00 0.00
12:55 am 00:55 Clear 56 13.3 54 12 92 92 Calm 30.21 1023 10 16 0.00 0.00
1:15 am 01:15 Clear 55 12.9 55 12.5 97 97 Calm 30.21 1023 10 16 0.00 0.00
1:35 am 01:35 Clear 56 13.3 53 11.9 91 91 Calm 30.21 1023 10 16 0.00 0.00
1:55 am 01:55 Clear 56 13.1 53 11.9 93 93 Calm 30.21 1023 10 16 0.00 0.00
2:15 am 02:15 Clear 56 13.2 54 12 93 93 Calm 30.21 1023 10 16 0.00 0.00
2:40 am 02:40 Clear 55 12.8 54 12 95 95 Calm 30.20 1023 10 16 0.00 0.00
2:55 am 02:55 Clear 55 12.7 54 12.1 96 96 Calm 30.21 1023 10 16 0.00 0.00
3:15 am 03:15 Clear 55 12.6 54 12 96 96 Calm 30.21 1023 10 16 0.00 0.00
3:35 am 03:35 Clear 54 12 N/A N/A Calm 30.21 1023 10 16 0.00 0.00
3:55 am 03:55 Clear 55 13 54 12 94 94 Calm 30.20 1023 10 16 0.00 0.00
4:15 am 04:15 Clear 54 12.3 54 12.2 99 99 Calm 30.21 1023 10 16 0.00 0.00
4:35 am 04:35 Clear 54 12 54 12 100 100 Calm 30.22 1023 10 16 0.00 0.00
4:55 am 04:55 Clear 54 12 54 12 100 100 N 3 6 30.23 1024 10 16 0.00 0.00
5:15 am 05:15 Clear 52 11 N/A N/A Calm 30.23 1024 10 16 0.00 0.00
5:35 am 05:35 Clear 52 11 N/A N/A Calm 30.24 1024 10 16 0.00 0.00
5:55 am 05:55 Clear 52 11 N/A N/A Calm 30.25 1024 10 16 0.00 0.00
6:15 am 06:15 Sunny 52 11 N/A N/A Calm 30.25 1024 10 16 0.00 0.00
6:35 am 06:35 Sunny 54 12 N/A N/A Calm 30.24 1024 10 16 0.00 0.00
6:55 am 06:55 Sunny 54 12 N/A N/A Calm 30.26 1025 10 16 0.00 0.00
7:15 am 07:15 Sunny 55 13 N/A N/A Calm 30.26 1025 10 16 0.00 0.00
7:35 am 07:35 Sunny 57 14 N/A N/A Calm 30.27 1025 10 16 0.00 0.00
7:55 am 07:55 Sunny 58 14.4 58 14.2 99 99 Calm 30.27 1025 10 16 0.00 0.00
8:15 am 08:15 Sunny 60 15.3 58 14.3 94 94 Calm 30.28 1025 10 16 0.00 0.00
8:35 am 08:35 Sunny 61 16.2 59 15.2 94 94 SW 3 6 30.26 1025 10 16 0.00 0.00
8:55 am 08:55 Sunny 63 17.4 58 14.2 82 82 SW 5 7 30.26 1025 10 16 0.00 0.00
9:15 am 09:15 Sunny 65 18.6 57 14.1 75 75 SW 6 9 30.27 1025 10 16 0.00 0.00
9:35 am 09:35 Sunny 67 19.6 54 12 62 62 S 6 9 30.26 1025 10 16 0.00 0.00
9:55 am 09:55 Sunny 69 20.5 53 11.7 57 57 S 8 13 30.25 1024 10 16 0.00 0.00
10:15 am 10:15 Sunny 70 20.9 54 12.1 57 57 SW 6 9 30.25 1024 10 16 0.00 0.00
10:35 am 10:35 Sunny 70 21.3 53 11.8 55 55 SW 5 7 30.25 1024 10 16 0.00 0.00
10:55 am 10:55 Sunny 72 22.1 54 12.3 54 54 SW 3 6 30.25 1024 10 16 0.00 0.00
11:15 am 11:15 Sunny 73 22.8 53 11.6 49 49 WSW 7 11 30.25 1024 10 16 0.00 0.00
11:35 am 11:35 Sunny 75 23.7 51 10.5 43 43 SW 8 13 30.25 1024 10 16 0.00 0.00
11:55 am 11:55 Sunny 76 24.2 52 10.9 43 43 SW 8 13 30.24 1024 10 16 0.00 0.00
12:15 pm 12:15 Sunny 76 24.6 50 10.1 40 40 WSW 8 13 30.24 1024 10 16 0.00 0.00
12:35 pm 12:35 Sunny 78 25.3 50 10.1 38 38 SW 6 9 30.24 1024 10 16 0.00 0.00
12:55 pm 12:55 Sunny 80 26.5 51 10.4 36 36 SSW 9 15 30.23 1024 10 16 0.00 0.00
1:15 pm 13:15 Sunny 80 26.4 48 8.8 33 33 SW 10 17 30.23 1024 10 16 0.00 0.00
1:35 pm 13:35 Sunny 80 26.9 49 9.2 33 33 SW 7 11 30.22 1023 10 16 0.00 0.00
1:55 pm 13:55 Sunny 82 27.7 50 9.8 33 33 S 6 9 30.21 1023 10 16 0.00 0.00
2:15 pm 14:15 Sunny 83 28.1 48 9.1 30 30 SSW 9 15 30.21 1023 10 16 0.00 0.00
2:35 pm 14:35 Sunny 83 28.4 47 8.3 28 28 W 7 11 30.21 1023 10 16 0.00 0.00
2:55 pm 14:55 Sunny 84 29.1 43 6.3 24 24 WSW 9 15 30.19 1022 10 16 0.00 0.00
3:15 pm 15:15 Sunny 83 28.6 46 7.6 27 27 WSW 12 19 30.19 1023 10 16 0.00 0.00
3:35 pm 15:35 Sunny 83 28.3 43 6.2 25 25 WSW 7 11 30.19 1022 10 16 0.00 0.00
3:55 pm 15:55 Sunny 82 27.9 50 9.8 32 32 SW 10 17 30.19 1022 10 16 0.00 0.00
4:15 pm 16:15 Sunny 80 26.9 49 9.6 34 34 WSW 10 17 30.19 1022 10 16 0.00 0.00
4:35 pm 16:35 Sunny 80 26.4 50 9.8 35 35 WSW 8 13 30.19 1022 10 16 0.00 0.00
4:55 pm 16:55 Sunny 80 26.8 46 7.7 30 30 WSW 8 13 30.18 1022 10 16 0.00 0.00
5:15 pm 17:15 Sunny 82 27.5 47 8.4 30 30 WSW 8 13 30.18 1022 10 16 0.00 0.00
5:35 pm 17:35 Sunny 83 28.3 46 7.7 27 27 SW 8 13 30.17 1022 10 16 0.00 0.00
5:55 pm 17:55 Sunny 82 28 47 8.2 29 29 SW 10 17 30.17 1022 10 16 0.00 0.00
6:15 pm 18:15 Sunny 82 27.5 50 9.9 33 33 SSW 7 11 30.16 1021 10 16 0.00 0.00
6:35 pm 18:35 Sunny 82 27.5 51 10.4 34 34 SW 8 13 30.15 1021 10 16 0.00 0.00
6:55 pm 18:55 Sunny 81 27.1 53 11.9 39 39 SW 7 11 30.14 1021 10 16 0.00 0.00
7:15 pm 19:15 Sunny 79 26.3 55 12.5 42 42 SW 6 9 30.14 1021 10 16 0.00 0.00
7:35 pm 19:35 Sunny 78 25.6 56 13.2 46 46 SW 3 6 30.14 1021 10 16 0.00 0.00
7:55 pm 19:55 Sunny 76 24.5 62 16.5 61 61 WSW 3 6 30.14 1021 10 16 0.00 0.00
8:15 pm 20:15 Sunny 75 23.9 62 16.4 63 63 SW 5 7 30.14 1021 10 16 0.00 0.00
8:35 pm 20:35 Sunny 73 22.9 60 15.8 64 64 Calm 30.14 1021 10 16 0.00 0.00
8:55 pm 20:55 Sunny 71 21.7 63 17.2 76 76 Calm 30.14 1021 10 16 0.00 0.00
9:15 pm 21:15 Clear 67 19.3 64 17.5 89 89 WSW 3 6 30.14 1021 10 16 0.00 0.00
9:35 pm 21:35 Clear 66 18.8 63 17.3 91 91 Calm 30.14 1021 10 16 0.00 0.00
9:55 pm 21:55 Clear 66 18.7 63 17 90 90 Calm 30.14 1021 10 16 0.00 0.00
10:15 pm 22:15 Clear 65 18.4 62 16.7 90 90 Calm 30.14 1021 10 16 0.00 0.00
10:35 pm 22:35 Clear 64 17.6 62 16.8 95 95 Calm 30.14 1021 10 16 0.00 0.00
10:55 pm 22:55 Clear 64 17.6 62 16.8 95 95 Calm 30.15 1021 10 16 0.00 0.00
11:15 pm 23:15 Clear 63 17 61 16 94 94 Calm 30.15 1021 10 16 0.00 0.00
11:35 pm 23:35 Clear 62 16.6 62 16.5 99 99 Calm 30.15 1021 10 16 0.00 0.00
11:55 pm 23:55 Clear 62 16.8 62 16.4 98 98 Calm 30.15 1021 10 16 0.00 0.00

Powered by AerisWeather